Longville, MN

9:35 PM CST on December 12, 2017 (GMT -0600)
Longville Municipal

Weather History for KXVG - October, 2011

Change the Weather History Date:

Friday, October 7, 2011

  Actual Average (KPWC) Record (KPWC)
Temperature  
Mean Temperature 70 °F -  
Max Temperature 77 °F 57 °F 84 °F (2003)
Min Temperature 62 °F 36 °F 17 °F (2012)
Cooling Degree Days 4    
Growing Degree Days 20 (Base 50)    
Moisture  
Dew Point 53 °F    
Average Humidity 58    
Maximum Humidity 94    
Minimum Humidity 44    
Precipitation  
Precipitation 0.44 in - - ()
Sea Level Pressure  
Sea Level Pressure 29.80 in    
Wind  
Wind Speed 14 mph (SSE)    
Max Wind Speed 25 mph    
Max Gust Speed 38 mph    
Visibility 10 miles    
Events Rain , Thunderstorm    
Averages and records for this station are not official NWS values.
T = Trace of Precipitation, MM = Missing Value Source: NWS Daily Summary

Daily Weather History Graph

Daily Weather History Graph

Search for Another Location

Airport or City:

Trip Planner

Search our weather history database for the weather conditions in past years. The results will help you decide how hot, cold, wet, or windy it might be!

Date:

Astronomy

Oct. 07, 2011 Rise Set
Actual Time 7:23 AM CDT 6:45 PM CDT
Civil Twilight 6:52 AM CDT 7:15 PM CDT
Nautical Twilight 6:17 AM CDT 7:50 PM CDT
Astronomical Twilight 5:42 AM CDT 8:26 PM CDT
Moon 4:40 PM CDT (10/7) 2:58 AM CDT (10/7)
Length of Visible Light 12h 22m
Length of Day
11h 21m
Waxing Gibbous, 83% of the Moon is Illuminated
Oct 7
Waxing Gibbous
Oct 11
Full
Oct 19
Last Quarter
Oct 26
New
Nov 2
First Quarter

Hourly Weather History & Observations

Time (CDT) Temp. Dew Point Humidity Pressure Visibility Wind Dir Wind Speed Gust Speed Precip Events Conditions
12:17 AM 66.2 °F 48.2 °F 52% 29.94 in 10.0 mi SSE 15.0 mph 23.0 mph N/A   Scattered Clouds
12:37 AM 66.2 °F 48.2 °F 52% 29.94 in 10.0 mi SSE 11.5 mph - N/A   Scattered Clouds
12:57 AM 68.0 °F 48.2 °F 49% 29.93 in 10.0 mi SSE 12.7 mph 19.6 mph N/A   Clear
1:18 AM 66.2 °F 48.2 °F 52% 29.93 in 10.0 mi SE 11.5 mph 19.6 mph N/A   Clear
1:37 AM 66.2 °F 48.2 °F 52% 29.93 in 10.0 mi SE 12.7 mph 18.4 mph N/A   Clear
1:58 AM 66.2 °F 48.2 °F 52% 29.92 in 10.0 mi SE 12.7 mph 18.4 mph N/A   Clear
2:17 AM 66.2 °F 48.2 °F 52% 29.92 in 10.0 mi SSE 11.5 mph 17.3 mph N/A   Clear
2:37 AM 66.2 °F 48.2 °F 52% 29.93 in 10.0 mi SSE 9.2 mph - N/A   Clear
2:57 AM 64.4 °F 48.2 °F 56% 29.92 in 10.0 mi SSE 11.5 mph 16.1 mph N/A   Clear
3:17 AM 66.2 °F 48.2 °F 52% 29.92 in 10.0 mi SE 10.4 mph 17.3 mph N/A   Clear
3:57 AM 64.4 °F 48.2 °F 56% 29.91 in 10.0 mi SE 9.2 mph - N/A   Clear
4:17 AM 64.4 °F 48.2 °F 56% 29.90 in 10.0 mi SE 9.2 mph - N/A   Clear
4:37 AM 64.4 °F 48.2 °F 56% 29.89 in 10.0 mi SE 11.5 mph 19.6 mph N/A   Clear
4:57 AM 64.4 °F 48.2 °F 56% 29.89 in 10.0 mi SE 10.4 mph 16.1 mph N/A   Clear
5:18 AM 64.4 °F 48.2 °F 56% 29.89 in 10.0 mi SE 10.4 mph 17.3 mph N/A   Clear
5:37 AM 64.4 °F 48.2 °F 56% 29.88 in 10.0 mi SSE 13.8 mph 19.6 mph N/A   Clear
5:57 AM 64.4 °F 48.2 °F 56% 29.88 in 10.0 mi SE 10.4 mph - N/A   Clear
6:17 AM 62.6 °F 48.2 °F 59% 29.87 in 10.0 mi SE 11.5 mph - N/A   Clear
6:37 AM 62.6 °F 50.0 °F 63% 29.87 in 10.0 mi SE 9.2 mph - N/A   Clear
7:17 AM 62.6 °F 50.0 °F 63% 29.86 in 10.0 mi SE 10.4 mph 18.4 mph N/A   Clear
7:37 AM 62.6 °F 50.0 °F 63% 29.85 in 10.0 mi SE 9.2 mph 16.1 mph N/A   Clear
7:57 AM 62.6 °F 50.0 °F 63% 29.85 in 10.0 mi SE 8.1 mph 16.1 mph N/A   Clear
8:17 AM 64.4 °F 50.0 °F 59% 29.85 in 10.0 mi SE 10.4 mph - N/A   Clear
8:37 AM 64.4 °F 50.0 °F 59% 29.84 in 10.0 mi SE 9.2 mph 17.3 mph N/A   Scattered Clouds
8:58 AM 64.4 °F 51.8 °F 64% 29.84 in 10.0 mi SE 11.5 mph 16.1 mph N/A   Scattered Clouds
9:17 AM 66.2 °F 51.8 °F 60% 29.84 in 10.0 mi SSE 15.0 mph 20.7 mph N/A   Scattered Clouds
9:57 AM 68.0 °F 51.8 °F 56% 29.83 in 10.0 mi SSE 18.4 mph 26.5 mph N/A   Mostly Cloudy
10:17 AM 69.8 °F 51.8 °F 53% 29.81 in 10.0 mi SSE 17.3 mph 26.5 mph N/A   Scattered Clouds
10:37 AM 69.8 °F 51.8 °F 53% 29.81 in 10.0 mi SSE 11.5 mph 24.2 mph N/A   Mostly Cloudy
10:57 AM 62.6 °F 57.2 °F 82% 29.83 in 10.0 mi South 10.4 mph 24.2 mph N/A Rain Light Rain
11:17 AM 64.4 °F 55.4 °F 73% 29.81 in 7.0 mi SSE 13.8 mph 21.9 mph N/A Rain , Thunderstorm Light Thunderstorms and Rain
11:37 AM 69.8 °F 53.6 °F 56% 29.80 in 10.0 mi South 19.6 mph 29.9 mph N/A   Scattered Clouds
11:57 AM 73.4 °F 53.6 °F 50% 29.78 in 10.0 mi SSE 17.3 mph 27.6 mph N/A   Scattered Clouds
12:17 PM 71.6 °F 53.6 °F 53% 29.78 in 10.0 mi SSE 18.4 mph 38.0 mph N/A   Scattered Clouds
12:37 PM 73.4 °F 53.6 °F 50% 29.77 in 10.0 mi South 19.6 mph 29.9 mph N/A   Clear
12:57 PM 73.4 °F 53.6 °F 50% 29.77 in 10.0 mi South 15.0 mph 36.8 mph N/A   Clear
1:17 PM 73.4 °F 53.6 °F 50% 29.76 in 10.0 mi SSE 25.3 mph 34.5 mph N/A   Scattered Clouds
1:37 PM 75.2 °F 53.6 °F 47% 29.74 in 10.0 mi South 20.7 mph 34.5 mph N/A   Scattered Clouds
1:57 PM 75.2 °F 53.6 °F 47% 29.75 in 10.0 mi SSE 24.2 mph 38.0 mph N/A   Clear
2:17 PM 75.2 °F 53.6 °F 47% 29.74 in 10.0 mi SSE 24.2 mph 31.1 mph N/A   Clear
2:37 PM 77.0 °F 53.6 °F 44% 29.73 in 10.0 mi SSE 24.2 mph 32.2 mph N/A   Clear
2:57 PM 75.2 °F 53.6 °F 47% 29.73 in 10.0 mi SSE 17.3 mph 31.1 mph N/A   Clear
3:17 PM 77.0 °F 53.6 °F 44% 29.73 in 10.0 mi SSE 23.0 mph 35.7 mph N/A   Scattered Clouds
3:37 PM 77.0 °F 55.4 °F 47% 29.72 in 10.0 mi SSE 20.7 mph 33.4 mph N/A   Scattered Clouds
3:57 PM 75.2 °F 55.4 °F 50% 29.71 in 10.0 mi SSE 21.9 mph 33.4 mph N/A   Scattered Clouds
4:17 PM 75.2 °F 55.4 °F 50% 29.71 in 10.0 mi South 19.6 mph 36.8 mph N/A   Mostly Cloudy
4:37 PM 75.2 °F 55.4 °F 50% 29.71 in 10.0 mi South 21.9 mph 31.1 mph N/A   Overcast
4:57 PM 75.2 °F 55.4 °F 50% 29.71 in 10.0 mi South 20.7 mph 29.9 mph N/A   Overcast
5:17 PM 75.2 °F 55.4 °F 50% 29.70 in 10.0 mi South 21.9 mph 27.6 mph N/A   Overcast
5:37 PM 75.2 °F 55.4 °F 50% 29.70 in 10.0 mi SSE 16.1 mph 32.2 mph N/A   Mostly Cloudy
5:57 PM 75.2 °F 55.4 °F 50% 29.70 in 10.0 mi SSE 17.3 mph 34.5 mph N/A   Mostly Cloudy
6:17 PM 75.2 °F 57.2 °F 53% 29.69 in 10.0 mi SSE 21.9 mph 35.7 mph N/A   Mostly Cloudy
6:37 PM 75.2 °F 57.2 °F 53% 29.68 in 10.0 mi SSE 16.1 mph 29.9 mph N/A   Scattered Clouds
6:57 PM 75.2 °F 57.2 °F 53% 29.68 in 10.0 mi SSE 19.6 mph 24.2 mph N/A   Clear
7:17 PM 75.2 °F 57.2 °F 53% 29.68 in 10.0 mi South 17.3 mph 24.2 mph N/A   Clear
7:57 PM 75.2 °F 57.2 °F 53% 29.69 in 10.0 mi South 18.4 mph 25.3 mph N/A   Mostly Cloudy
8:17 PM 71.6 °F 62.6 °F 73% 29.72 in 10.0 mi SW 9.2 mph 32.2 mph N/A Rain Light Rain
8:38 PM 66.2 °F 62.6 °F 88% 29.72 in 10.0 mi SW 8.1 mph - 0.02 in Rain Rain
8:58 PM 64.4 °F 62.6 °F 94% 29.73 in 10.0 mi SW 8.1 mph - 0.01 in Rain Rain
9:17 PM 64.4 °F 62.6 °F 94% 29.75 in 5.0 mi SW 10.4 mph 18.4 mph 0.36 in Rain , Thunderstorm Heavy Thunderstorms and Rain
9:38 PM 64.4 °F 62.6 °F 94% 29.74 in 10.0 mi SSW 8.1 mph - 0.42 in   Overcast
9:57 PM 64.4 °F 62.6 °F 94% 29.74 in 10.0 mi South 9.2 mph 17.3 mph N/A Rain Light Rain
10:17 PM 64.4 °F 62.6 °F 94% 29.74 in 10.0 mi SSW 8.1 mph - N/A   Mostly Cloudy
10:37 PM 64.4 °F 62.6 °F 94% 29.76 in 7.0 mi South 16.1 mph 20.7 mph 0.04 in Rain , Thunderstorm Thunderstorms and Rain
10:58 PM 62.6 °F 59.0 °F 88% 29.78 in 7.0 mi South 13.8 mph 29.9 mph 0.01 in Rain , Thunderstorm Heavy Thunderstorms and Rain
11:17 PM 60.8 °F 57.2 °F 88% 29.78 in 10.0 mi South 12.7 mph 23.0 mph 0.03 in Rain Light Rain
11:37 PM 60.8 °F 55.4 °F 82% 29.77 in 10.0 mi SW 4.6 mph - 0.03 in   Overcast
11:57 PM 62.6 °F 55.4 °F 77% 29.79 in 10.0 mi SSW 5.8 mph - N/A   Overcast